﻿測定場所 (Monitoring sites),日付 (Measurement date),時間 (Measurement time),線量率 最大値 (max) μGy/h,線量率 最小値 (min) μGy/h,線量率 平均値 (average) μGy/h,
新宿 (Shinjuku),2011-04-24,23:00～23:59,0.0719,0.0668,0.0693,
新宿 (Shinjuku),2011-04-24,22:00～22:59,0.0731,0.0669,0.0695,
新宿 (Shinjuku),2011-04-24,21:00～21:59,0.0736,0.0673,0.0702,
新宿 (Shinjuku),2011-04-24,20:00～20:59,0.0746,0.0692,0.0717,
新宿 (Shinjuku),2011-04-24,19:00～19:59,0.0750,0.0675,0.0720,
新宿 (Shinjuku),2011-04-24,18:00～18:59,0.0717,0.0672,0.0694,
新宿 (Shinjuku),2011-04-24,17:00～17:59,0.0725,0.0666,0.0697,
新宿 (Shinjuku),2011-04-24,16:00～16:59,0.0731,0.0682,0.0699,
新宿 (Shinjuku),2011-04-24,15:00～15:59,0.0722,0.0659,0.0699,
新宿 (Shinjuku),2011-04-24,14:00～14:59,0.0741,0.0665,0.0698,
新宿 (Shinjuku),2011-04-24,13:00～13:59,0.0740,0.0673,0.0698,
新宿 (Shinjuku),2011-04-24,12:00～12:59,0.0733,0.0675,0.0700,
新宿 (Shinjuku),2011-04-24,11:00～11:59,0.0734,0.0683,0.0707,
新宿 (Shinjuku),2011-04-24,10:00～10:59,0.0733,0.0679,0.0706,
新宿 (Shinjuku),2011-04-24,09:00～09:59,0.0726,0.0680,0.0704,
新宿 (Shinjuku),2011-04-24,08:00～08:59,0.0735,0.0660,0.0703,
新宿 (Shinjuku),2011-04-24,07:00～07:59,0.0733,0.0674,0.0702,
新宿 (Shinjuku),2011-04-24,06:00～06:59,0.0730,0.0669,0.0701,
新宿 (Shinjuku),2011-04-24,05:00～05:59,0.0731,0.0673,0.0693,
新宿 (Shinjuku),2011-04-24,04:00～04:59,0.0720,0.0652,0.0692,
新宿 (Shinjuku),2011-04-24,03:00～03:59,0.0715,0.0666,0.0692,
新宿 (Shinjuku),2011-04-24,02:00～02:59,0.0732,0.0665,0.0696,
新宿 (Shinjuku),2011-04-24,01:00～01:59,0.0732,0.0666,0.0699,
新宿 (Shinjuku),2011-04-24,00:00～00:59,0.0736,0.0656,0.0706,
新宿 (Shinjuku),2011-04-23,23:00～23:59,0.0749,0.0685,0.0714,
新宿 (Shinjuku),2011-04-23,22:00～22:59,0.0732,0.0683,0.0707,
新宿 (Shinjuku),2011-04-23,21:00～21:59,0.0739,0.0684,0.0706,
新宿 (Shinjuku),2011-04-23,20:00～20:59,0.0737,0.0680,0.0705,
新宿 (Shinjuku),2011-04-23,19:00～19:59,0.0735,0.0678,0.0705,
新宿 (Shinjuku),2011-04-23,18:00～18:59,0.0730,0.0677,0.0703,
新宿 (Shinjuku),2011-04-23,17:00～17:59,0.0769,0.0677,0.0709,
新宿 (Shinjuku),2011-04-23,16:00～16:59,0.0749,0.0687,0.0711,
新宿 (Shinjuku),2011-04-23,15:00～15:59,0.0736,0.0682,0.0709,
新宿 (Shinjuku),2011-04-23,14:00～14:59,0.0741,0.0674,0.0711,
新宿 (Shinjuku),2011-04-23,13:00～13:59,0.0733,0.0671,0.0707,
新宿 (Shinjuku),2011-04-23,12:00～12:59,0.0748,0.0684,0.0711,
新宿 (Shinjuku),2011-04-23,11:00～11:59,0.0738,0.0690,0.0712,
新宿 (Shinjuku),2011-04-23,10:00～10:59,0.0742,0.0688,0.0711,
新宿 (Shinjuku),2011-04-23,09:00～09:59,0.0747,0.0686,0.0714,
新宿 (Shinjuku),2011-04-23,08:00～08:59,0.0742,0.0687,0.0718,
新宿 (Shinjuku),2011-04-23,07:00～07:59,0.0749,0.0682,0.0715,
新宿 (Shinjuku),2011-04-23,06:00～06:59,0.0749,0.0690,0.0720,
新宿 (Shinjuku),2011-04-23,05:00～05:59,0.0766,0.0697,0.0723,
新宿 (Shinjuku),2011-04-23,04:00～04:59,0.0749,0.0700,0.0728,
新宿 (Shinjuku),2011-04-23,03:00～03:59,0.0754,0.0701,0.0729,
新宿 (Shinjuku),2011-04-23,02:00～02:59,0.0747,0.0690,0.0726,
新宿 (Shinjuku),2011-04-23,01:00～01:59,0.0749,0.0685,0.0718,
新宿 (Shinjuku),2011-04-23,00:00～00:59,0.0754,0.0682,0.0717,
新宿 (Shinjuku),2011-04-22,23:00～23:59,0.0742,0.0691,0.0718,
新宿 (Shinjuku),2011-04-22,22:00～22:59,0.0756,0.0689,0.0721,
新宿 (Shinjuku),2011-04-22,21:00～21:59,0.0745,0.0693,0.0715,
新宿 (Shinjuku),2011-04-22,20:00～20:59,0.0751,0.0701,0.0723,
新宿 (Shinjuku),2011-04-22,19:00～19:59,0.0760,0.0685,0.0721,
新宿 (Shinjuku),2011-04-22,18:00～18:59,0.0754,0.0694,0.0722,
新宿 (Shinjuku),2011-04-22,17:00～17:59,0.0760,0.0697,0.0726,
新宿 (Shinjuku),2011-04-22,16:00～16:59,0.0760,0.0691,0.0723,
新宿 (Shinjuku),2011-04-22,15:00～15:59,0.0756,0.0694,0.0725,
新宿 (Shinjuku),2011-04-22,14:00～14:59,0.0763,0.0698,0.0726,
新宿 (Shinjuku),2011-04-22,13:00～13:59,0.0756,0.0693,0.0724,
新宿 (Shinjuku),2011-04-22,12:00～12:59,0.0746,0.0695,0.0725,
新宿 (Shinjuku),2011-04-22,11:00～11:59,0.0764,0.0713,0.0731,
新宿 (Shinjuku),2011-04-22,10:00～10:59,0.0757,0.0707,0.0729,
新宿 (Shinjuku),2011-04-22,09:00～09:59,0.0755,0.0701,0.0727,
新宿 (Shinjuku),2011-04-22,08:00～08:59,0.0755,0.0694,0.0726,
新宿 (Shinjuku),2011-04-22,07:00～07:59,0.0756,0.0694,0.0726,
新宿 (Shinjuku),2011-04-22,06:00～06:59,0.0758,0.0697,0.0720,
新宿 (Shinjuku),2011-04-22,05:00～05:59,0.0742,0.0683,0.0719,
新宿 (Shinjuku),2011-04-22,04:00～04:59,0.0744,0.0694,0.0720,
新宿 (Shinjuku),2011-04-22,03:00～03:59,0.0750,0.0696,0.0716,
新宿 (Shinjuku),2011-04-22,02:00～02:59,0.0744,0.0685,0.0718,
新宿 (Shinjuku),2011-04-22,01:00～01:59,0.0750,0.0688,0.0719,
新宿 (Shinjuku),2011-04-22,00:00～00:59,0.0755,0.0688,0.0719,
新宿 (Shinjuku),2011-04-21,23:00～23:59,0.0742,0.0683,0.0716,
新宿 (Shinjuku),2011-04-21,22:00～22:59,0.0753,0.0686,0.0718,
新宿 (Shinjuku),2011-04-21,21:00～21:59,0.0742,0.0697,0.0719,
新宿 (Shinjuku),2011-04-21,20:00～20:59,0.0762,0.0687,0.0723,
新宿 (Shinjuku),2011-04-21,19:00～19:59,0.0759,0.0696,0.0725,
新宿 (Shinjuku),2011-04-21,18:00～18:59,0.0749,0.0694,0.0723,
新宿 (Shinjuku),2011-04-21,17:00～17:59,0.0749,0.0697,0.0722,
新宿 (Shinjuku),2011-04-21,16:00～16:59,0.0746,0.0692,0.0722,
新宿 (Shinjuku),2011-04-21,15:00～15:59,0.0756,0.0692,0.0727,
新宿 (Shinjuku),2011-04-21,14:00～14:59,0.0753,0.0694,0.0724,
新宿 (Shinjuku),2011-04-21,13:00～13:59,0.0770,0.0701,0.0727,
新宿 (Shinjuku),2011-04-21,12:00～12:59,0.0772,0.0695,0.0727,
新宿 (Shinjuku),2011-04-21,11:00～11:59,0.0767,0.0698,0.0727,
新宿 (Shinjuku),2011-04-21,10:00～10:59,0.0745,0.0698,0.0721,
新宿 (Shinjuku),2011-04-21,09:00～09:59,0.0745,0.0694,0.0719,
新宿 (Shinjuku),2011-04-21,08:00～08:59,0.0748,0.0683,0.0719,
新宿 (Shinjuku),2011-04-21,07:00～07:59,0.0741,0.0699,0.0721,
新宿 (Shinjuku),2011-04-21,06:00～06:59,0.0751,0.0681,0.0720,
新宿 (Shinjuku),2011-04-21,05:00～05:59,0.0753,0.0700,0.0725,
新宿 (Shinjuku),2011-04-21,04:00～04:59,0.0757,0.0702,0.0726,
新宿 (Shinjuku),2011-04-21,03:00～03:59,0.0759,0.0700,0.0727,
新宿 (Shinjuku),2011-04-21,02:00～02:59,0.0747,0.0693,0.0727,
新宿 (Shinjuku),2011-04-21,01:00～01:59,0.0760,0.0692,0.0722,
新宿 (Shinjuku),2011-04-21,00:00～00:59,0.0740,0.0694,0.0724,
新宿 (Shinjuku),2011-04-20,23:00～23:59,0.0753,0.0697,0.0726,
新宿 (Shinjuku),2011-04-20,22:00～22:59,0.0746,0.0697,0.0724,
新宿 (Shinjuku),2011-04-20,21:00～21:59,0.0740,0.0692,0.0717,
新宿 (Shinjuku),2011-04-20,20:00～20:59,0.0751,0.0695,0.0722,
新宿 (Shinjuku),2011-04-20,19:00～19:59,0.0753,0.0689,0.0722,
新宿 (Shinjuku),2011-04-20,18:00～18:59,0.0746,0.0698,0.0724,
新宿 (Shinjuku),2011-04-20,17:00～17:59,0.0752,0.0701,0.0726,
新宿 (Shinjuku),2011-04-20,16:00～16:59,0.0757,0.0708,0.0729,
新宿 (Shinjuku),2011-04-20,15:00～15:59,0.0770,0.0708,0.0739,
新宿 (Shinjuku),2011-04-20,14:00～14:59,0.0781,0.0704,0.0739,
新宿 (Shinjuku),2011-04-20,13:00～13:59,0.0767,0.0704,0.0741,
新宿 (Shinjuku),2011-04-20,12:00～12:59,0.0762,0.0701,0.0736,
新宿 (Shinjuku),2011-04-20,11:00～11:59,0.0756,0.0708,0.0734,
新宿 (Shinjuku),2011-04-20,10:00～10:59,0.0771,0.0714,0.0739,
新宿 (Shinjuku),2011-04-20,09:00～09:59,0.0762,0.0703,0.0733,
新宿 (Shinjuku),2011-04-20,08:00～08:59,0.0754,0.0699,0.0729,
新宿 (Shinjuku),2011-04-20,07:00～07:59,0.0757,0.0696,0.0729,
新宿 (Shinjuku),2011-04-20,06:00～06:59,0.0760,0.0697,0.0726,
新宿 (Shinjuku),2011-04-20,05:00～05:59,0.0753,0.0697,0.0724,
新宿 (Shinjuku),2011-04-20,04:00～04:59,0.0761,0.0694,0.0727,
新宿 (Shinjuku),2011-04-20,03:00～03:59,0.0757,0.0696,0.0725,
新宿 (Shinjuku),2011-04-20,02:00～02:59,0.0747,0.0700,0.0723,
新宿 (Shinjuku),2011-04-20,01:00～01:59,0.0756,0.0701,0.0721,
新宿 (Shinjuku),2011-04-20,00:00～00:59,0.0748,0.0676,0.0716,
新宿 (Shinjuku),2011-04-19,23:00～23:59,0.0746,0.0695,0.0721,
新宿 (Shinjuku),2011-04-19,22:00～22:59,0.0752,0.0693,0.0723,
新宿 (Shinjuku),2011-04-19,21:00～21:59,0.0760,0.0701,0.0729,
新宿 (Shinjuku),2011-04-19,20:00～20:59,0.0796,0.0722,0.0756,
新宿 (Shinjuku),2011-04-19,19:00～19:59,0.0874,0.0758,0.0809,
新宿 (Shinjuku),2011-04-19,18:00～18:59,0.0869,0.0763,0.0822,
新宿 (Shinjuku),2011-04-19,17:00～17:59,0.0809,0.0722,0.0758,
新宿 (Shinjuku),2011-04-19,16:00～16:59,0.0754,0.0701,0.0726,
新宿 (Shinjuku),2011-04-19,15:00～15:59,0.0756,0.0695,0.0726,
新宿 (Shinjuku),2011-04-19,14:00～14:59,0.0765,0.0706,0.0740,
新宿 (Shinjuku),2011-04-19,13:00～13:59,0.0777,0.0706,0.0746,
新宿 (Shinjuku),2011-04-19,12:00～12:59,0.0769,0.0710,0.0744,
新宿 (Shinjuku),2011-04-19,11:00～11:59,0.0775,0.0720,0.0739,
新宿 (Shinjuku),2011-04-19,10:00～10:59,0.0758,0.0706,0.0737,
新宿 (Shinjuku),2011-04-19,09:00～09:59,0.0760,0.0709,0.0736,
新宿 (Shinjuku),2011-04-19,08:00～08:59,0.0770,0.0713,0.0741,
新宿 (Shinjuku),2011-04-19,07:00～07:59,0.0796,0.0723,0.0762,
新宿 (Shinjuku),2011-04-19,06:00～06:59,0.0821,0.0751,0.0789,
新宿 (Shinjuku),2011-04-19,05:00～05:59,0.0821,0.0754,0.0796,
新宿 (Shinjuku),2011-04-19,04:00～04:59,0.0808,0.0742,0.0780,
新宿 (Shinjuku),2011-04-19,03:00～03:59,0.0796,0.0725,0.0764,
新宿 (Shinjuku),2011-04-19,02:00～02:59,0.0795,0.0729,0.0761,
新宿 (Shinjuku),2011-04-19,01:00～01:59,0.0781,0.0722,0.0752,
新宿 (Shinjuku),2011-04-19,00:00～00:59,0.0781,0.0728,0.0750,
新宿 (Shinjuku),2011-04-18,23:00～23:59,0.0772,0.0729,0.0749,
新宿 (Shinjuku),2011-04-18,22:00～22:59,0.0774,0.0722,0.0748,
新宿 (Shinjuku),2011-04-18,21:00～21:59,0.0776,0.0718,0.0748,
新宿 (Shinjuku),2011-04-18,20:00～20:59,0.0780,0.0729,0.0750,
新宿 (Shinjuku),2011-04-18,19:00～19:59,0.0773,0.0718,0.0748,
新宿 (Shinjuku),2011-04-18,18:00～18:59,0.0779,0.0718,0.0746,
新宿 (Shinjuku),2011-04-18,17:00～17:59,0.0783,0.0712,0.0749,
新宿 (Shinjuku),2011-04-18,16:00～16:59,0.0795,0.0725,0.0753,
新宿 (Shinjuku),2011-04-18,15:00～15:59,0.0785,0.0724,0.0752,
新宿 (Shinjuku),2011-04-18,14:00～14:59,0.0795,0.0736,0.0758,
新宿 (Shinjuku),2011-04-18,13:00～13:59,0.0773,0.0727,0.0754,
新宿 (Shinjuku),2011-04-18,12:00～12:59,0.0780,0.0722,0.0752,
新宿 (Shinjuku),2011-04-18,11:00～11:59,0.0783,0.0721,0.0752,
新宿 (Shinjuku),2011-04-18,10:00～10:59,0.0788,0.0738,0.0761,
新宿 (Shinjuku),2011-04-18,09:00～09:59,0.0791,0.0731,0.0761,
新宿 (Shinjuku),2011-04-18,08:00～08:59,0.0786,0.0720,0.0760,
新宿 (Shinjuku),2011-04-18,07:00～07:59,0.0777,0.0729,0.0753,
新宿 (Shinjuku),2011-04-18,06:00～06:59,0.0786,0.0728,0.0754,
新宿 (Shinjuku),2011-04-18,05:00～05:59,0.0782,0.0718,0.0751,
新宿 (Shinjuku),2011-04-18,04:00～04:59,0.0783,0.0716,0.0750,
新宿 (Shinjuku),2011-04-18,03:00～03:59,0.0770,0.0722,0.0747,
新宿 (Shinjuku),2011-04-18,02:00～02:59,0.0790,0.0726,0.0752,
新宿 (Shinjuku),2011-04-18,01:00～01:59,0.0788,0.0721,0.0750,
新宿 (Shinjuku),2011-04-18,00:00～00:59,0.0788,0.0722,0.0752,
